[Iaude] MPEC G160: 2024 GT3 [a=1.03,e=0.08,i=15.8,H=24.3]

mpec at cfa.harvard.edu mpec at cfa.harvard.edu
Thu Apr 11 16:27:48 EDT 2024


M.P.E.C. 2024-G160                               Issued 2024 April 11, 20:26 UT

     The Minor Planet Electronic Circulars contain information on unusual
         minor planets, routine data on comets and natural satellites,
         and occasional editorial announcements.  They are published
    on behalf of Division F of the International Astronomical Union by the
          Minor Planet Center, Smithsonian Astrophysical Observatory,
                          Cambridge, MA 02138, U.S.A.
			  
             Prepared using the Tamkin Foundation Computer Network

                              MPC at CFA.HARVARD.EDU
            URL https://www.minorplanetcenter.net/    ISSN 1523-6714

                                    2024 GT3                                    


Observations:
     K24G03T* C2024 04 10.48056112 51 15.071+28 03 30.19         21.12wXEG160F51
     K24G03T  C2024 04 10.49225512 51 07.943+28 02 20.98         20.89wXEG160F51
     K24G03T  C2024 04 10.51568412 50 53.709+28 00 01.99         20.95wXEG160F51
     K24G03T  C2024 04 10.57634612 50 17.293+27 53 56.37         20.10GVEG160F51
     K24G03T  C2024 04 10.57716412 50 16.800+27 53 51.37         20.42GVEG160F51
     K24G03T 1C2024 04 10.90400 12 47 17.04 +27 21 00.8          19.5 VXEG160033
     K24G03T KB2024 04 10.90467512 47 17.74 +27 21 05.4          20.6 GXEG160I93
     K24G03T 1C2024 04 10.90504 12 47 16.41 +27 20 54.6          19.7 VXEG160033
     K24G03T 1C2024 04 10.90608 12 47 15.75 +27 20 48.6          19.6 VXEG160033
     K24G03T 1C2024 04 10.90712 12 47 15.15 +27 20 42.1          19.7 VXEG160033
     K24G03T KB2024 04 10.91505612 47 11.52 +27 20 03.3          20.2 GXEG160I93
     K24G03T KC2024 04 10.97664612 46 34.22 +27 13 55.7          19.7 GXEG160958
     K24G03T KC2024 04 10.98219212 46 30.87 +27 13 20.9          19.7 GXEG160958
     K24G03T KC2024 04 10.98769412 46 27.40 +27 12 48.8          19.9 GXEG160958
     K24G03T mC2024 04 11.29520412 43 29.701+26 41 36.06         21.06GVEG160V06
     K24G03T mC2024 04 11.29565112 43 29.460+26 41 33.47         21.05GVEG160V06
     K24G03T mC2024 04 11.29609812 43 29.168+26 41 30.70         20.62GVEG160V06
     K24G03T mC2024 04 11.29654612 43 28.841+26 41 27.31               VEG160V06
     K24G03T 1C2024 04 11.82840 12 38 23.19 +25 44 16.0          21.6 VXEG160033
     K24G03T 1C2024 04 11.82897 12 38 22.92 +25 44 11.7          21.6 VXEG160033
     K24G03T 1C2024 04 11.82955 12 38 22.59 +25 44 07.9          20.9 VXEG160033

Observer details:
033 Karl Schwarzschild Observatory, Tautenburg.  Observers S. Melnikov, C.
    Hogner, F. Ludwig, M. Hartmann, B. Stecklum.  Measurer B. Stecklum.
    1.34-m f/3 Schmidt + CCD.
958 Observatoire de Dax.  Observers P. Dupouy, J. B. de Vanssay.  Measurer P.
    Dupouy.  0.43-m f/2.7 Reflector + CCD.
F51 Pan-STARRS 1, Haleakala.  Observers J. Herman, T. Lowe, P. Minguez, A.
    Schultz, I. Smith.  Measurers K. Chambers, T. de Boer, J. Fairlamb, H.
    Gao, M. Huber, C.-C. Lin, E. Magnier, Y. Ramanjooloo, R. Wainscoat, R.
    Weryk.  1.8-m Ritchey-Chretien + CCD.
I93 St Pardon de Conques.  Observer F. Losse.  0.40-m f/3.7 reflector + CCD.
V06 Catalina Sky Survey-Kuiper.  Observers V. F. Carvajal, G. J. Leonard.
    Measurers T. Beuden, V. F. Carvajal, D. Fay, J. B. Fazekas, D. C. Fuls, A.
    R. Gibbs, A. D. Grauer, H. Groeller, J. K. Hogan, R. A. Kowalski, S. M.
    Larson, G. J. Leonard, D. Rankin, R. L. Seaman, F. C. Shelly, K. W.
    Wierzchos.  1.55-m reflector + 1K CCD.

Orbital elements:
2024 GT3                                                 Earth MOID = 0.0097 AU
Epoch 2024 Mar. 31.0 TT = JDT 2460400.5                 MPC                     
M 232.35777              (2000.0)            P               Q                  
n   0.94430426     Peri.  296.91575     +0.80090126     +0.58518157             
a   1.0289511      Node    27.82928     -0.40585342     +0.68639247             
e   0.0834827      Incl.   15.78119     -0.44027285     +0.43177299             
P   1.04           H   24.38          G   0.15           U   8                  
Residuals in seconds of arc
240410 F51  0.0   0.0     240410 033  0.3+  0.1-    240411 V06  0.5-  0.1-
240410 F51  0.0   0.1-    240410 033  0.1-  0.1+    240411 V06  0.0   0.1+
240410 F51  0.0   0.1+    240410 033  0.2+  0.1-    240411 V06  0.2-  0.1+
240410 F51  0.0   0.1-    240410 I93  0.2-  0.1+    240411 V06  0.9-  0.4-
240410 F51  0.1-  0.2-    240410 958  0.7+  0.6+    240411 033  0.6-  0.4+
240410 033  0.3+  0.1-    240410 958  1.1+  0.6-    240411 033  0.4+  0.2-
240410 I93  1.0-  0.6+    240410 958  0.4-  0.7+    240411 033  0.7+  0.3-

Ephemeris:
2024 GT3                 a,e,i = 1.03, 0.08, 16                  q = 0.9431
Date    TT    R. A. (2000) Decl.     Delta      r    Elong.  Phase     V
2024 03 12    15 14 05.7 +40 09 51   0.2026  1.1019   117.5    53.1    23.1
...
2024 03 27    14 34 07.9 +39 19 25   0.1386  1.0895   128.5    45.8    22.0
...
2024 04 04    13 46 36.5 +35 34 52   0.1079  1.0814   136.9    39.2    21.3
...
2024 04 10    12 55 50.1 +28 48 43   0.08964 1.0748   143.0    34.1    20.7
2024 04 11    12 46 21.0 +27 12 07   0.08721 1.0736   143.7    33.6    20.6
2024 04 12    12 36 40.3 +25 26 23   0.08499 1.0725   144.1    33.2    20.6
...
2024 04 18    11 37 17.2 +11 59 31   0.07721 1.0652   141.0    36.3    20.4
...
2024 04 26    10 27 03.8 -08 16 32   0.08306 1.0550   124.0    52.2    21.0
...
2024 05 11    09 05 25.7 -31 09 00   0.1256  1.0344    97.8    75.3    22.6

A. U. Tomatic                (C) Copyright 2024 MPC           M.P.E.C. 2024-G160





More information about the Iaude mailing list